Simultaneous Nadir Overpasses (SNOs) Predictions

Prediction of SNOs between NOAA-15 and METOP-C Satellite Orbit:

Table of predicted SNOs for the next 14.0 days since TLE Epoch: 3/6/2020
Index Date (NOAA-15) Time (NOAA-15) Lat,Lon (NOAA-15) SZA (NOAA-15 ) Date (METOP-C) Time (METOP-C) Lat,Lon (METOP-C) SZA (METOP-C ) Distance(km) Time Diff (sec)
1 03/16/2020 08:57:53 -80.90, -99.40 96.19 03/16/2020 08:56:49 -80.90, -99.23 96.20 2.99 64
2 03/16/2020 09:48:28 80.89, 68.08 83.81 03/16/2020 09:47:30 80.90, 68.00 83.78 1.49 58
3 03/16/2020 10:38:56 -80.90,-124.82 96.22 03/16/2020 10:38:11 -80.89,-124.71 96.24 2.24 45
4 03/16/2020 11:29:31 80.90, 42.66 83.77 03/16/2020 11:28:52 80.89, 42.52 83.74 2.67 39
5 03/16/2020 12:19:58 -80.89,-149.88 96.24 03/16/2020 12:19:32 -80.90,-149.83 96.24 1.36 26
6 03/16/2020 13:10:34 80.91, 17.24 83.74 03/16/2020 13:10:13 80.90, 17.40 83.74 2.91 21
7 03/16/2020 14:01:01 -80.90,-175.29 96.28 03/16/2020 14:00:54 -80.90,-175.31 96.28 0.59 7
8 03/16/2020 14:51:35 80.90, -7.82 83.72 03/16/2020 14:51:33 80.91, -7.72 83.74 2.38 2
9 03/16/2020 15:42:02 -80.89, 159.65 96.29 03/16/2020 15:42:14 -80.91, 159.57 96.28 2.31 12
10 03/16/2020 16:32:38 80.90, -33.23 83.69 03/16/2020 16:32:55 80.90, -33.19 83.70 0.68 17
11 03/16/2020 17:23:05 -80.90, 134.23 96.33 03/16/2020 17:23:36 -80.90, 134.09 96.33 2.51 31
12 03/16/2020 18:13:41 80.91, -58.65 83.65 03/16/2020 18:14:17 80.90, -58.67 83.65 1.66 36
13 03/16/2020 19:04:08 -80.91, 108.82 96.36 03/16/2020 19:04:57 -80.91, 108.97 96.33 2.78 49
14 03/16/2020 19:54:43 80.90, -83.71 83.63 03/16/2020 19:55:38 80.91, -83.79 83.65 1.61 55
15 03/16/2020 20:45:11 -80.91, 83.40 96.40 03/16/2020 20:46:19 -80.91, 83.50 96.37 1.94 68




NCC Satellite Simultaneous Nadir Overpasses (SNOs) Prediction Service
